Weather History for Sierra Vista, AZ

Change the Weather History Date:

Sunday, February 26, 2012

  Actual Average Record
Temperature  
Mean Temperature 56 °F -  
Max Temperature 69 °F 59 °F 83 °F (1986)
Min Temperature 44 °F 39 °F 30 °F (2013)
Degree Days  
Heating Degree Days 8    
Growing Degree Days 6 (Base 50)    
Moisture  
Dew Point 21 °F    
Average Humidity 24    
Maximum Humidity 40    
Minimum Humidity 15    
Precipitation  
Precipitation 0.00 in - - ()
Sea Level Pressure  
Sea Level Pressure 29.88 in    
Wind  
Wind Speed 8 mph (SW)    
Max Wind Speed 25 mph    
Max Gust Speed 37 mph    
Visibility 10 miles    
Events      
Averages and records for this station are not official NWS values.
T = Trace of Precipitation, MM = Missing Value Source: NWS Daily Summary

Daily Weather History Graph

Daily Weather History Graph

Search for Another Location

Airport:

Trip Planner

Search our weather history database for the weather conditions in past years. The results will help you decide how hot, cold, wet, or windy it might be!

Date:

Astronomy

Feb. 26, 2012 Rise Set
Actual Time 6:52 AM MST 6:16 PM MST
Civil Twilight 6:27 AM MST 6:41 PM MST
Nautical Twilight 5:59 AM MST 7:09 PM MST
Astronomical Twilight 5:31 AM MST 7:37 PM MST
Moon 9:10 AM MST (2/26) 10:54 PM MST (2/26)
Length of Visible Light 12h 13m
Length of Day
11h 24m
Waxing Crescent, 21% of the Moon is Illuminated
Feb 26
Waxing Crescent
Feb 29
First Quarter
Mar 8
Full
Mar 14
Last Quarter
Mar 22
New

Hourly Weather History & Observations

Time (MST) Temp. Windchill Dew Point Humidity Pressure Visibility Wind Dir Wind Speed Gust Speed Precip Events Conditions
12:56 AM 50.0 °F - 19.9 °F 31% 29.91 in 10.0 mi South 5.8 mph - N/A   Clear
1:56 AM 50.0 °F - 19.9 °F 31% 29.91 in 10.0 mi South 4.6 mph - N/A   Clear
2:56 AM 51.1 °F - 19.0 °F 28% 29.86 in 10.0 mi Calm Calm - N/A   Clear
3:56 AM 48.9 °F - 19.0 °F 31% 29.85 in 10.0 mi Calm Calm - N/A   Clear
4:56 AM 46.0 °F 44.8 °F 19.9 °F 35% 29.86 in 10.0 mi WNW 3.5 mph - N/A   Clear
5:56 AM 48.9 °F - 21.0 °F 33% 29.87 in 10.0 mi WNW 4.6 mph - N/A   Clear
6:56 AM 44.1 °F 41.5 °F 21.0 °F 40% 29.90 in 10.0 mi South 4.6 mph - N/A   Clear
7:56 AM 53.1 °F - 21.9 °F 30% 29.90 in 10.0 mi SE 4.6 mph - N/A   Clear
8:56 AM 57.0 °F - 21.9 °F 26% 29.92 in 10.0 mi Calm Calm - N/A   Clear
9:56 AM 63.0 °F - 17.1 °F 17% 29.91 in 10.0 mi WSW 13.8 mph 18.4 mph N/A   Clear
10:56 AM 64.9 °F - 18.0 °F 16% 29.92 in 10.0 mi WSW 17.3 mph 21.9 mph N/A   Clear
11:56 AM 66.9 °F - 19.0 °F 16% 29.90 in 10.0 mi WSW 8.1 mph - N/A   Clear
12:24 PM 68.0 °F - 19.4 °F 16% 29.99 in 10.0 mi SSW 16.1 mph 24.2 mph N/A   Clear
12:56 PM 69.1 °F - 19.9 °F 15% 29.86 in 10.0 mi SW 11.5 mph 26.5 mph N/A   Clear
1:56 PM 68.0 °F - 19.9 °F 16% 29.84 in 10.0 mi South 5.8 mph 29.9 mph N/A   Clear
2:56 PM 69.1 °F - 21.0 °F 16% 29.83 in 10.0 mi WSW 13.8 mph 27.6 mph N/A   Clear
3:56 PM 69.1 °F - 19.9 °F 15% 29.83 in 10.0 mi WSW 18.4 mph 24.2 mph N/A   Clear
4:56 PM 68.0 °F - 23.0 °F 18% 29.84 in 10.0 mi North - - N/A   Clear
5:56 PM 64.0 °F - 24.1 °F 22% 29.85 in 10.0 mi SW 11.5 mph - N/A   Partly Cloudy
6:56 PM 62.1 °F - 24.1 °F 23% 29.89 in 10.0 mi SSW 12.7 mph - N/A   Clear
7:56 PM 60.1 °F - 21.9 °F 23% 29.89 in 10.0 mi SSW 12.7 mph - N/A   Clear
8:56 PM 57.9 °F - 21.0 °F 24% 29.90 in 10.0 mi SSW 9.2 mph - N/A   Clear
9:56 PM 57.9 °F - 21.0 °F 24% 29.89 in 10.0 mi SW 10.4 mph 19.6 mph N/A   Clear
10:56 PM 57.9 °F - 23.0 °F 26% 29.87 in 10.0 mi SSW 17.3 mph 31.1 mph N/A   Clear
11:56 PM 57.0 °F - 21.0 °F 25% 29.88 in 10.0 mi SSW 25.3 mph 36.8 mph N/A   Clear